Satellite: XATCOBEO
Catalog number: 38082
Epoch time:      12285.78221195
Element set:     612
Inclination:      069.4823 deg
RA of node:       046.5937 deg
Eccentricity:    0.0689282
Arg of perigee:   099.1817 deg
Mean anomaly:     268.7742 deg
Mean motion:   14.26956411 rev/day
Decay rate:     5.7979e-04 rev/day^2
Epoch rev:            3415
Checksum:              351

/EX
SB KEPS @ AMSAT  $ORB12285.W
Orbital Elements  12285.WEATHER

HR AMSAT ORBITAL ELEMENTS FOR WEATHER SATELLITES
FROM WA5QGD FORT WORTH,TX October 11, 2012
Send SUBSCRIBE KEPS/UNSUBSCRIBE KEPS to majordomo@amsat.org only
BID: ORB12285.W
TO ALL RADIO AMATEURS BT

Satellite: NOAA-10
Catalog number: 16969
Epoch time:      12284.94734441
Element set:    0095
Inclination:      098.5730 deg
RA of node:       311.8950 deg
Eccentricity:    0.0011349
Arg of perigee:   255.5333 deg
Mean anomaly:     104.4580 deg
Mean motion:   14.27583535 rev/day
Decay rate:       2.02e-06 rev/day^2
Epoch rev:           35638
Checksum:              306

Satellite: NOAA-11
Catalog number: 19531
Epoch time:      12284.75911884
Element set:    0087
Inclination:      098.7265 deg
RA of node:       007.4594 deg
Eccentricity:    0.0010335
Arg of perigee:   254.7583 deg
Mean anomaly:     105.2435 deg
Mean motion:   14.14984371 rev/day
Decay rate:       -3.3e-07 rev/day^2
Epoch rev:           24085
Checksum:              307

Satellite: NOAA-12
Catalog number: 21263
Epoch time:      12284.93101220
Element set:    0583
Inclination:      098.7235 deg
RA of node:       306.0210 deg
Eccentricity:    0.0013091
Arg of perigee:   222.6387 deg
Mean anomaly:     137.3778 deg
Mean motion:   14.25522129 rev/day
Decay rate:        1.0e-07 rev/day^2
Epoch rev:           11304
Checksum:              248

Satellite: MET-3/5
Catalog number: 21655
Epoch time:      12284.46828282
Element set:    0001
Inclination:      082.5552 deg
RA of node:       070.7356 deg
Eccentricity:    0.0013758
Arg of perigee:   039.0126 deg
Mean anomaly:     321.1986 deg
Mean motion:   13.17043161 rev/day
Decay rate:      -2.80e-06 rev/day^2
Epoch rev:           01682
Checksum:              280

Satellite: MET-2/21
Catalog number: 22782
Epoch time:      12284.63757766
Element set:    0551
Inclination:      082.5464 deg
RA of node:       300.9135 deg
Eccentricity:    0.0022237
Arg of perigee:   184.9351 deg
Mean anomaly:     175.1584 deg
Mean motion:   13.83688915 rev/day
Decay rate:       -4.0e-08 rev/day^2
Epoch rev:           96513
Checksum:              322

Satellite: OKEAN-4
Catalog number: 23317
Epoch time:      12285.82373246
Element set:      23
Inclination:      082.5359 deg
RA of node:       282.1426 deg
Eccentricity:    0.0020830
Arg of perigee:   332.1957 deg
Mean anomaly:     027.8149 deg
Mean motion:   14.83996732 rev/day
Decay rate:      1.128e-05 rev/day^2
Epoch rev:           97210
Checksum:              301

Satellite: NOAA-14
Catalog number: 23455
Epoch time:      12284.82151776
Element set:    0056
Inclination:      098.8231 deg
RA of node:       006.8347 deg
Eccentricity:    0.0009625
Arg of perigee:   352.8155 deg
Mean anomaly:     007.2877 deg
Mean motion:   14.13874754 rev/day
Decay rate:       -6.0e-08 rev/day^2
Epoch rev:           91713
Checksum:              314

Satellite: NOAA-15
Catalog number: 25338
Epoch time:      12284.62244900
Element set:    0435
Inclination:      098.7025 deg
RA of node:       270.5120 deg
Eccentricity:    0.0011276
Arg of perigee:   129.2553 deg
Mean anomaly:     230.9618 deg
Mean motion:   14.25128989 rev/day
Decay rate:       2.31e-06 rev/day^2
Epoch rev:           74929
Checksum:              300

Satellite: RESURS
Catalog number: 25394
Epoch time:      12284.96363867
Element set:    0207
Inclination:      098.3316 deg
RA of node:       267.1749 deg
Eccentricity:    0.0000445
Arg of perigee:   297.8881 deg
Mean anomaly:     062.2253 deg
Mean motion:   14.24300473 rev/day
Decay rate:        4.7e-07 rev/day^2
Epoch rev:           74088
Checksum:              315

Satellite: FENGYUN1
Catalog number: 25730
Epoch time:      12284.90642181
Element set:    0727
Inclination:      098.8535 deg
RA of node:       241.9363 deg
Eccentricity:    0.0021448
Arg of perigee:   030.7298 deg
Mean anomaly:     329.5112 deg
Mean motion:   14.09773193 rev/day
Decay rate:        8.8e-07 rev/day^2
Epoch rev:           69091
Checksum:              314

Satellite: OKEAN-0
Catalog number: 25860
Epoch time:      12284.91338214
Element set:     757
Inclination:      097.9524 deg
RA of node:       245.2909 deg
Eccentricity:    0.0000634
Arg of perigee:   094.2784 deg
Mean anomaly:     265.8497 deg
Mean motion:   14.74332940 rev/day
Decay rate:       5.40e-06 rev/day^2
Epoch rev:           71162
Checksum:              316

Satellite: NOAA-16
Catalog number: 26536
Epoch time:      12284.61908938
Element set:    0926
Inclination:      099.0818 deg
RA of node:       328.4534 deg
Eccentricity:    0.0011393
Arg of perigee:   117.9317 deg
Mean anomaly:     242.3025 deg
Mean motion:   14.12789759 rev/day
Decay rate:       2.08e-06 rev/day^2
Epoch rev:           62133
Checksum:              323

